Weather History for K1M4 - July, 2014

Change the Weather History Date:

Monday, July 28, 2014

  Actual Average (KJFX) Record (KJFX)
Temperature  
Mean Temperature 74 °F -  
Max Temperature 83 °F 89 °F 99 °F (1966)
Min Temperature 64 °F 68 °F 60 °F (1962)
Cooling Degree Days 10    
Growing Degree Days 24 (Base 50)    
Moisture  
Dew Point 69 °F    
Average Humidity 78    
Maximum Humidity 100    
Minimum Humidity 52    
Precipitation  
Precipitation 0.00 in - - ()
Sea Level Pressure  
Sea Level Pressure 30.06 in    
Wind  
Wind Speed 4 mph (NNW)    
Max Wind Speed 12 mph    
Max Gust Speed 18 mph    
Visibility 10 miles    
Events Thunderstorm    
Averages and records for this station are not official NWS values.
T = Trace of Precipitation, MM = Missing Value Source: NWS Daily Summary

Daily Weather History Graph

Daily Weather History Graph

Search for Another Location

Airport or City:

Trip Planner

Search our weather history database for the weather conditions in past years. The results will help you decide how hot, cold, wet, or windy it might be!

Date:

Astronomy

Jul. 28, 2014 Rise Set
Actual Time 5:58 AM CDT 7:54 PM CDT
Civil Twilight 5:30 AM CDT 8:22 PM CDT
Nautical Twilight 4:56 AM CDT 8:56 PM CDT
Astronomical Twilight 4:20 AM CDT 9:32 PM CDT
Moon 7:32 AM CDT (7/28) 8:44 PM CDT (7/28)
Length of Visible Light 14h 52m
Length of Day
13h 56m
Waxing Crescent, 3% of the Moon is Illuminated
Jul 28
Waxing Crescent
Aug 3
First Quarter
Aug 10
Full
Aug 17
Last Quarter
Aug 25
New

Hourly Weather History & Observations

Time (CDT) Temp. Heat Index Dew Point Humidity Pressure Visibility Wind Dir Wind Speed Gust Speed Precip Events Conditions
12:56 AM 79.0 °F - 75.9 °F 90% 30.04 in 10.0 mi WSW 5.8 mph - N/A   Clear
1:56 AM 79.0 °F - 75.9 °F 90% 30.02 in 10.0 mi Calm Calm - N/A   Clear
2:10 AM 78.8 °F - 75.2 °F 89% 29.99 in 10.0 mi Calm Calm - N/A Thunderstorm Partly Cloudy
2:25 AM 78.8 °F - 75.2 °F 89% 29.98 in 10.0 mi Calm Calm - N/A   Partly Cloudy
2:56 AM 77.9 °F - 75.9 °F 94% 30.01 in 10.0 mi Calm Calm - N/A   Clear
3:56 AM 77.0 °F - 75.9 °F 96% 30.02 in 9.0 mi Calm Calm - N/A   Clear
4:38 AM 77.0 °F - 77.0 °F 100% 30.00 in 7.0 mi Calm Calm - N/A   Partly Cloudy
4:56 AM 77.0 °F - 77.0 °F 100% 30.04 in 7.0 mi Calm Calm - N/A   Mostly Cloudy
5:03 AM 77.0 °F - 77.0 °F 100% 30.00 in 7.0 mi Calm Calm - N/A   Mostly Cloudy
5:14 AM 77.0 °F - 77.0 °F 100% 30.01 in 7.0 mi Calm Calm - N/A   Scattered Clouds
5:56 AM 77.0 °F - 77.0 °F 100% 30.05 in 8.0 mi Calm Calm - N/A   Scattered Clouds
6:56 AM 74.8 °F - 70.9 °F 87% 30.07 in 10.0 mi North 8.1 mph - N/A   Clear
7:56 AM 75.9 °F - 66.9 °F 74% 30.09 in 10.0 mi North 6.9 mph - N/A   Clear
8:56 AM 77.9 °F - 64.9 °F 64% 30.10 in 10.0 mi North 9.2 mph - N/A   Clear
9:56 AM 79.9 °F - 63.0 °F 56% 30.11 in 10.0 mi NNW 8.1 mph - N/A   Clear
10:56 AM 81.0 °F 82.2 °F 63.0 °F 54% 30.11 in 10.0 mi NW 6.9 mph - N/A   Clear
11:56 AM 81.9 °F 83.2 °F 63.9 °F 54% 30.11 in 10.0 mi NW 10.4 mph - N/A   Clear
12:56 PM 82.9 °F 84.2 °F 63.9 °F 52% 30.09 in 10.0 mi NW 8.1 mph - N/A   Clear
1:56 PM 82.9 °F 84.6 °F 64.9 °F 54% 30.08 in 10.0 mi NNW 9.2 mph - N/A   Clear
2:56 PM 83.8 °F 85.6 °F 64.9 °F 53% 30.08 in 10.0 mi NW 11.5 mph - N/A   Partly Cloudy
3:56 PM 82.9 °F 84.2 °F 63.9 °F 52% 30.07 in 10.0 mi North 9.2 mph 18.4 mph N/A   Scattered Clouds
4:56 PM 81.0 °F 82.2 °F 63.0 °F 54% 30.07 in 10.0 mi NNW 8.1 mph - N/A   Scattered Clouds
5:56 PM 79.0 °F - 63.9 °F 60% 30.07 in 10.0 mi NNW 9.2 mph - N/A   Clear
6:56 PM 77.9 °F - 63.0 °F 60% 30.08 in 10.0 mi NNW 6.9 mph - N/A   Clear
7:56 PM 72.9 °F - 64.9 °F 76% 30.08 in 10.0 mi Calm Calm - N/A   Clear
8:56 PM 68.9 °F - 63.9 °F 84% 30.09 in 10.0 mi Calm Calm - N/A   Clear
9:56 PM 68.0 °F - 63.9 °F 87% 30.12 in 10.0 mi Calm Calm - N/A   Clear
10:56 PM 66.9 °F - 63.9 °F 90% 30.12 in 10.0 mi Calm Calm - N/A   Clear
11:56 PM 64.9 °F - 63.9 °F 96% 30.12 in 10.0 mi Calm Calm - N/A   Clear